{"data":{"norad_id":67596,"epoch":"2026-05-25T04:01:43.848768Z","epoch_age_seconds":57767,"freshness":"FRESH","line1":"1 67596U 26018H   26145.16786862  .00022934  00000+0  71037-3 0  9992","line2":"2 67596  97.2836 210.2780 0001094  85.6329 274.5038 15.33453956 19055","mean_motion":15.33453956,"eccentricity":0.0001094,"inclination_deg":97.2836,"raan_deg":210.278,"arg_perigee_deg":85.6329,"mean_anomaly_deg":274.5038,"bstar":0.00071037,"rev_number":1905,"period_min":93.905656206087,"perigee_km":464.76783215696,"apogee_km":466.26522354885,"semimajor_km":6843.6535278529,"source":"CELESTRAK","updated_at":"2026-05-25T13:38:21.620548Z"}}